Вернуться в каталог

STARLINK-35966

АктивенСвязьVLEO
NORAD 66821·PAYLOAD·🇺🇸 United States

Запущен Dec 2, 2025 с Vandenberg Space Force Base

Loading…

Ближайшие Пролёты (ближайшие 24 часа)

TLE

СвежийSource: CelesTrak SupGP

Эпоха: Sep 14, 2026, 21:05 UTC

1 66821C 25280A   26257.87895833  .00017227  00000+0  14439-2 0  2571
2 66821  70.0012 217.6317 0003054 268.1305 317.7068 14.98317952    11

Отслеживайте STARLINK-35966 в реальном времени с AllMySat

Download on the App Store